Regional Weather Roundup
Issued by NWS Green Bay, WI

Home | Current Version | Previous Version | Graphics & Text | Print | Product List | Glossary Off
Versions: 1 2 3 4 5 6 7 8 9 10 11 12 13 14 15 16 17 18 19 20 21 22 23 24 25 26 27 28 29 30 31 32 33 34 35 36 37 38 39 40 41 42 43 44 45 46 47 48 49 50

000
ASUS43 KGRB 152310
RWRGRB

NORTH-CENTRAL AND NORTHEAST WISCONSIN REGIONAL WEATHER ROUNDUP
NATIONAL WEATHER SERVICE GREEN BAY WI
600 PM CDT TUE APR 15 2014

WIZ005-009-010>012-018-019-160000-
NORTH CENTRAL WISCONSIN

CITY           SKY/WX    TMP DP  RH WIND       PRES   REMARKS
IRONWOOD       SUNNY     27   5  39 N3        30.02R
MANITOWISH WTR MOSUNNY   28   2  33 NW5       30.01R
ARBOR VITAE    SUNNY     34   5  29 N10       30.01R
EAGLE RIVER    MOSUNNY   28   3  34 NW7       30.01S
LAND O LAKES   MOSUNNY   28   2  33 N9        30.02R
RHINELANDER    MOSUNNY   27   5  39 W10       30.02R
PHILLIPS       SUNNY     31   2  29 NW7       30.02R
ANTIGO         PTSUNNY   28   9  46 W5        30.04R
TOMAHAWK       MOSUNNY   29   3  33 CALM      30.03R
MERRILL        SUNNY     31   6  34 CALM      30.04S
$$

WIZ013-073-160000-
NORTHEAST WISCONSIN

CITY           SKY/WX    TMP DP  RH WIND       PRES   REMARKS
IRON MOUNTAIN  CLOUDY    28  11  48 NW6       30.03R
MARINETTE      CLOUDY    28  16  59 N8        30.08R
OCONTO         MOSUNNY   31  15  53 W9        30.09R
$$

WIZ017-030-035>037-045-160000-
CENTRAL WISCONSIN

CITY           SKY/WX    TMP DP  RH WIND       PRES   REMARKS
MEDFORD        SUNNY     30  10  43 W9        30.03S
WAUSAU         MOSUNNY   29   9  43 W10       30.05R
MOSINEE        MOSUNNY   28  10  47 NW7       30.07S
MARSHFIELD     MOSUNNY   31  11  43 W8        30.05S
WISC RAPIDS    MOSUNNY   31  10  41 W7        30.09S
STEVENS POINT  PTSUNNY   28   9  44 W3        30.09R
WAUPACA        CLOUDY    34  14  44 W7        30.11R
SHAWANO        PTSUNNY   34  14  44 W7G16     30.09S
CLINTONVILLE   PTSUNNY   32  12  43 W10       30.10R
$$

WIZ038-039-048-051-160000-
FOX VALLEY

CITY           SKY/WX    TMP DP  RH WIND       PRES   REMARKS
NWS GREEN BAY  MOSUNNY   32  17  54 W14G22    30.11R
APPLETON       PTSUNNY   30  12  47 W13       30.10R
OSHKOSH        CLOUDY    32  15  49 W9        30.11R
FOND DU LAC    PTSUNNY   31  14  49 W8G17     30.11S
$$

WIZ022-050-052-160000-
EAST CENTRAL WISCONSIN

CITY           SKY/WX    TMP DP  RH WIND       PRES   REMARKS
STURGEON BAY   MOSUNNY   30  16  55 W7        30.09R
MANITOWOC      MIX PCPN  32  18  56 W7        30.12R
SHEBOYGAN      PTSUNNY   33  19  56 W10       30.12R
$$

LMZ563-521-522-541>543-160000-
LAKESHORE

STATION/POSITION TIME  TEMP    WIND        PRES    VSBY  WAVE
                       AIR SEA DIR/SP/G                  HT/PER
                 (UTC) (F)     (DEG/KT/KT) (MB)    (MI)  (FT/S)
SHEBOYGAN LKSHOR 2300   33     280/ 10/ 12 1021.3R
KEWAUNEE LKSHORE 2300   31     280/  7/ 11 1019.9R
NORTHPORT PIER   2300   29     260/  4/  9 1019.0R
SISTER BAY LKSHO 2300          240/  7/  8   N/A
MENOMINEE LKSHOR 2300   30     330/ 12/ 14 1019.0R
$$



USA.gov is the U.S. government's official web portal to all federal, state and local government web resources and services.